Time,TemperatureF,DewpointF,PressureIn,WindDirection,WindDirectionDegrees,WindSpeedMPH,WindSpeedGustMPH,Humidity,HourlyPrecipIn,Conditions,Clouds,dailyrainin,SoftwareType,DateUTC
2013-12-06 00:03:00,35.1,33.8,30.55,NNE,23,0.0,0.0,95,0.00,CLR,,0.00,WeatherDisplay:10.37,2013-12-06 09:03:00,
2013-12-06 00:08:00,35.2,33.9,30.55,NNE,24,0.0,0.0,95,0.00,CLR,,0.00,WeatherDisplay:10.37,2013-12-06 09:08:00,
2013-12-06 00:13:00,35.3,34.0,30.55,NNE,23,0.0,0.0,95,0.00,CLR,,0.00,WeatherDisplay:10.37,2013-12-06 09:13:00,
2013-12-06 00:18:00,35.3,34.3,30.56,NNE,24,0.0,0.0,96,0.00,CLR,,0.00,WeatherDisplay:10.37,2013-12-06 09:18:00,
2013-12-06 00:23:00,35.3,34.3,30.56,NNE,24,0.0,0.0,96,0.00,CLR,,0.00,WeatherDisplay:10.37,2013-12-06 09:23:00,
2013-12-06 00:28:00,35.3,34.3,30.56,NNE,24,0.0,0.0,96,0.00,CLR,,0.00,WeatherDisplay:10.37,2013-12-06 09:28:00,
2013-12-06 00:33:00,35.3,34.0,30.56,NNE,23,0.0,0.0,95,0.00,CLR,,0.00,WeatherDisplay:10.37,2013-12-06 09:33:00,
2013-12-06 00:38:00,35.3,34.0,30.56,NNE,24,0.0,0.0,95,0.00,CLR,,0.00,WeatherDisplay:10.37,2013-12-06 09:38:00,
2013-12-06 00:43:00,35.4,34.4,30.56,NNE,24,0.0,0.0,96,0.00,CLR,,0.00,WeatherDisplay:10.37,2013-12-06 09:43:00,
2013-12-06 00:48:00,35.5,34.5,30.56,NNE,24,0.0,0.0,96,0.00,CLR,,0.00,WeatherDisplay:10.37,2013-12-06 09:48:00,
2013-12-06 00:53:00,35.6,34.6,30.56,NNE,24,0.0,0.0,96,0.00,CLR,,0.00,WeatherDisplay:10.37,2013-12-06 09:53:00,
2013-12-06 00:58:00,35.6,34.6,30.56,NNE,23,0.0,0.0,96,0.00,CLR,,0.00,WeatherDisplay:10.37,2013-12-06 09:58:00,
2013-12-06 01:03:00,35.6,34.6,30.56,NNE,24,0.0,0.0,96,0.00,CLR,,0.00,WeatherDisplay:10.37,2013-12-06 10:03:00,
2013-12-06 01:08:00,35.6,34.6,30.56,NNE,23,0.0,0.0,96,0.00,CLR,,0.00,WeatherDisplay:10.37,2013-12-06 10:08:00,
2013-12-06 01:13:00,35.7,34.7,30.56,NNE,23,0.0,0.0,96,0.00,CLR,,0.00,WeatherDisplay:10.37,2013-12-06 10:13:00,
2013-12-06 01:18:00,35.8,34.8,30.56,NNE,24,0.0,0.0,96,0.00,CLR,,0.00,WeatherDisplay:10.37,2013-12-06 10:18:00,
2013-12-06 01:23:00,36.0,35.0,30.56,NNE,24,0.0,0.0,96,0.00,CLR,,0.00,WeatherDisplay:10.37,2013-12-06 10:23:00,
2013-12-06 01:28:00,36.0,35.0,30.56,NNE,24,0.0,0.0,96,0.00,CLR,,0.00,WeatherDisplay:10.37,2013-12-06 10:28:00,
2013-12-06 01:33:00,36.0,35.0,30.56,NNE,24,0.0,0.0,96,0.00,CLR,,0.00,WeatherDisplay:10.37,2013-12-06 10:33:00,
2013-12-06 01:38:00,35.9,34.9,30.56,NNE,24,0.0,0.0,96,0.00,CLR,,0.00,WeatherDisplay:10.37,2013-12-06 10:38:00,
2013-12-06 01:43:00,35.7,34.7,30.56,NNE,24,0.0,0.0,96,0.00,CLR,,0.00,WeatherDisplay:10.37,2013-12-06 10:43:00,
2013-12-06 01:48:00,35.6,34.6,30.56,NNE,23,0.0,0.0,96,0.00,CLR,,0.00,WeatherDisplay:10.37,2013-12-06 10:48:00,
2013-12-06 01:53:00,35.6,34.6,30.56,NNE,23,0.0,0.0,96,0.00,CLR,,0.00,WeatherDisplay:10.37,2013-12-06 10:53:00,
2013-12-06 01:58:00,35.7,34.7,30.56,NNE,24,0.0,0.0,96,0.00,CLR,,0.00,WeatherDisplay:10.37,2013-12-06 10:58:00,
2013-12-06 02:03:00,35.8,34.8,30.56,NNE,24,0.0,0.0,96,0.00,CLR,,0.00,WeatherDisplay:10.37,2013-12-06 11:03:00,
2013-12-06 02:08:00,35.7,34.7,30.56,NNE,24,0.0,0.0,96,0.00,CLR,,0.00,WeatherDisplay:10.37,2013-12-06 11:08:00,
2013-12-06 02:13:00,35.6,34.6,30.56,NNE,24,0.0,0.0,96,0.00,CLR,,0.00,WeatherDisplay:10.37,2013-12-06 11:13:00,
2013-12-06 02:18:00,35.6,34.6,30.56,NNE,24,0.0,0.0,96,0.00,CLR,,0.00,WeatherDisplay:10.37,2013-12-06 11:18:00,
2013-12-06 02:23:00,35.6,34.6,30.56,NNE,23,0.0,0.0,96,0.00,CLR,,0.00,WeatherDisplay:10.37,2013-12-06 11:23:00,
2013-12-06 02:28:00,35.6,34.6,30.56,NNE,24,0.0,0.0,96,0.00,CLR,,0.00,WeatherDisplay:10.37,2013-12-06 11:28:00,
2013-12-06 02:33:00,35.6,34.6,30.56,NNE,24,0.0,0.0,96,0.00,CLR,,0.00,WeatherDisplay:10.37,2013-12-06 11:33:00,
2013-12-06 02:38:00,35.7,34.7,30.56,NNE,24,0.0,0.0,96,0.00,CLR,,0.00,WeatherDisplay:10.37,2013-12-06 11:38:00,
2013-12-06 02:43:00,35.9,34.9,30.56,NNE,23,0.0,0.0,96,0.00,CLR,,0.00,WeatherDisplay:10.37,2013-12-06 11:43:00,
2013-12-06 02:48:00,35.9,34.9,30.56,NNE,24,0.0,0.0,96,0.00,CLR,,0.00,WeatherDisplay:10.37,2013-12-06 11:48:00,
2013-12-06 02:53:00,35.9,34.9,30.56,NNE,24,0.0,0.0,96,0.00,CLR,,0.00,WeatherDisplay:10.37,2013-12-06 11:53:00,
2013-12-06 02:58:00,35.9,34.9,30.56,NNE,24,0.0,0.0,96,0.00,CLR,,0.00,WeatherDisplay:10.37,2013-12-06 11:58:00,
2013-12-06 03:03:00,35.8,34.8,30.56,NNE,23,0.0,0.0,96,0.00,CLR,,0.00,WeatherDisplay:10.37,2013-12-06 12:03:00,
2013-12-06 03:08:00,35.6,34.6,30.56,NNE,23,0.0,0.0,96,0.00,CLR,,0.00,WeatherDisplay:10.37,2013-12-06 12:08:00,
2013-12-06 03:13:00,35.4,34.4,30.56,NNE,24,0.0,0.0,96,0.00,CLR,,0.00,WeatherDisplay:10.37,2013-12-06 12:13:00,
2013-12-06 03:18:00,35.3,34.3,30.56,NNE,24,0.0,0.0,96,0.00,CLR,,0.00,WeatherDisplay:10.37,2013-12-06 12:18:00,
2013-12-06 03:23:00,35.2,34.2,30.56,NNE,23,0.0,0.0,96,0.00,CLR,,0.00,WeatherDisplay:10.37,2013-12-06 12:23:00,
2013-12-06 03:28:00,35.2,34.2,30.56,NNE,24,0.0,0.0,96,0.00,CLR,,0.00,WeatherDisplay:10.37,2013-12-06 12:28:00,
2013-12-06 03:33:00,35.2,34.2,30.56,NNE,24,0.0,0.0,96,0.00,CLR,,0.00,WeatherDisplay:10.37,2013-12-06 12:33:00,
2013-12-06 03:38:00,35.3,34.3,30.56,NNE,24,0.0,0.0,96,0.00,CLR,,0.00,WeatherDisplay:10.37,2013-12-06 12:38:00,
2013-12-06 03:43:00,35.3,34.3,30.56,NNE,23,0.0,0.0,96,0.00,CLR,,0.00,WeatherDisplay:10.37,2013-12-06 12:43:00,
2013-12-06 03:48:00,35.4,34.4,30.56,NNE,24,0.0,0.0,96,0.00,CLR,,0.00,WeatherDisplay:10.37,2013-12-06 12:48:00,
2013-12-06 03:53:00,35.4,34.4,30.56,NNE,23,0.0,0.0,96,0.00,CLR,,0.00,WeatherDisplay:10.37,2013-12-06 12:53:00,
2013-12-06 03:58:00,35.4,34.4,30.56,NNE,24,0.0,0.0,96,0.00,CLR,,0.00,WeatherDisplay:10.37,2013-12-06 12:58:00,
2013-12-06 04:03:00,35.6,34.6,30.56,NNE,24,0.0,0.0,96,0.00,CLR,,0.00,WeatherDisplay:10.37,2013-12-06 13:03:00,
2013-12-06 04:08:00,35.6,34.6,30.56,NNE,24,0.0,0.0,96,0.00,CLR,,0.00,WeatherDisplay:10.37,2013-12-06 13:08:00,
2013-12-06 04:13:00,35.7,34.7,30.56,NNE,24,0.0,0.0,96,0.00,CLR,,0.00,WeatherDisplay:10.37,2013-12-06 13:13:00,
2013-12-06 04:18:00,35.8,34.8,30.56,NNE,24,0.0,0.0,96,0.00,CLR,,0.00,WeatherDisplay:10.37,2013-12-06 13:18:00,
2013-12-06 04:23:00,35.8,34.8,30.56,NNE,24,0.0,0.0,96,0.00,CLR,,0.00,WeatherDisplay:10.37,2013-12-06 13:23:00,
2013-12-06 04:28:00,35.8,34.8,30.56,NNE,23,0.0,0.0,96,0.00,CLR,,0.00,WeatherDisplay:10.37,2013-12-06 13:28:00,
2013-12-06 04:33:00,35.8,34.8,30.55,NNE,23,0.0,0.0,96,0.00,CLR,,0.00,WeatherDisplay:10.37,2013-12-06 13:33:00,
2013-12-06 04:38:00,35.8,34.8,30.55,NNE,24,0.0,0.0,96,0.00,CLR,,0.00,WeatherDisplay:10.37,2013-12-06 13:38:00,
2013-12-06 04:43:00,36.0,35.0,30.55,NNE,24,0.0,0.0,96,0.00,CLR,,0.00,WeatherDisplay:10.37,2013-12-06 13:43:00,
2013-12-06 04:48:00,36.0,35.0,30.55,NNE,24,0.0,0.0,96,0.00,CLR,,0.00,WeatherDisplay:10.37,2013-12-06 13:48:00,
2013-12-06 04:53:00,36.0,35.0,30.55,NNE,23,0.0,0.0,96,0.00,CLR,,0.00,WeatherDisplay:10.37,2013-12-06 13:53:00,
2013-12-06 04:58:00,36.0,35.0,30.55,NNE,24,0.0,0.0,96,0.00,CLR,,0.00,WeatherDisplay:10.37,2013-12-06 13:58:00,
2013-12-06 05:03:00,36.0,35.0,30.55,NNE,24,0.0,0.0,96,0.00,CLR,,0.00,WeatherDisplay:10.37,2013-12-06 14:03:00,
2013-12-06 05:08:00,36.0,35.0,30.55,NNE,23,0.0,0.0,96,0.00,CLR,,0.00,WeatherDisplay:10.37,2013-12-06 14:08:00,
2013-12-06 05:13:00,36.1,35.1,30.55,NNE,24,0.0,0.0,96,0.00,CLR,,0.00,WeatherDisplay:10.37,2013-12-06 14:13:00,
2013-12-06 05:18:00,36.1,35.1,30.55,NNE,24,0.0,0.0,96,0.00,CLR,,0.00,WeatherDisplay:10.37,2013-12-06 14:18:00,
2013-12-06 05:23:00,36.0,35.0,30.55,NNE,24,0.0,0.0,96,0.00,CLR,,0.00,WeatherDisplay:10.37,2013-12-06 14:23:00,
2013-12-06 05:28:00,36.0,35.0,30.55,NNE,23,0.0,0.0,96,0.00,CLR,,0.00,WeatherDisplay:10.37,2013-12-06 14:28:00,
2013-12-06 05:33:00,35.9,34.9,30.55,NNE,24,0.0,0.0,96,0.00,CLR,,0.00,WeatherDisplay:10.37,2013-12-06 14:33:00,
2013-12-06 05:38:00,35.9,34.9,30.55,NNE,24,0.0,0.0,96,0.00,CLR,,0.00,WeatherDisplay:10.37,2013-12-06 14:38:00,
2013-12-06 05:43:00,35.7,34.7,30.55,NNE,23,0.0,0.0,96,0.00,CLR,,0.00,WeatherDisplay:10.37,2013-12-06 14:43:00,
2013-12-06 05:48:00,35.6,34.6,30.55,NNE,23,0.0,0.0,96,0.00,CLR,,0.00,WeatherDisplay:10.37,2013-12-06 14:48:00,
2013-12-06 05:53:00,35.7,34.7,30.56,NNE,24,0.0,0.0,96,0.00,CLR,,0.00,WeatherDisplay:10.37,2013-12-06 14:53:00,
2013-12-06 05:58:00,35.8,34.8,30.55,NNE,24,0.0,0.0,96,0.00,CLR,,0.00,WeatherDisplay:10.37,2013-12-06 14:58:00,
2013-12-06 06:03:00,35.9,34.9,30.55,NNE,24,0.0,0.0,96,0.00,CLR,,0.00,WeatherDisplay:10.37,2013-12-06 15:03:00,
2013-12-06 06:08:00,36.0,35.0,30.55,NNE,24,0.0,0.0,96,0.00,CLR,,0.00,WeatherDisplay:10.37,2013-12-06 15:08:00,
2013-12-06 06:13:00,36.0,35.0,30.55,NNE,23,0.0,0.0,96,0.00,CLR,,0.00,WeatherDisplay:10.37,2013-12-06 15:13:00,
2013-12-06 06:18:00,35.8,34.8,30.55,NNE,24,0.0,0.0,96,0.00,CLR,,0.00,WeatherDisplay:10.37,2013-12-06 15:18:00,
2013-12-06 06:23:00,35.8,34.8,30.55,NNE,23,0.0,0.0,96,0.00,CLR,,0.00,WeatherDisplay:10.37,2013-12-06 15:23:00,
2013-12-06 06:28:00,35.9,34.9,30.55,NNE,23,0.0,0.0,96,0.00,CLR,,0.00,WeatherDisplay:10.37,2013-12-06 15:28:00,
2013-12-06 06:33:00,35.9,34.9,30.56,NNE,24,0.0,0.0,96,0.00,CLR,,0.00,WeatherDisplay:10.37,2013-12-06 15:33:00,
2013-12-06 06:38:00,35.9,34.9,30.56,NNE,24,0.0,0.0,96,0.00,CLR,,0.00,WeatherDisplay:10.37,2013-12-06 15:38:00,
2013-12-06 06:43:00,35.8,34.8,30.56,NNE,23,0.0,0.0,96,0.00,CLR,,0.00,WeatherDisplay:10.37,2013-12-06 15:43:00,
2013-12-06 06:48:00,35.7,34.7,30.56,NNE,23,0.0,0.0,96,0.00,CLR,,0.00,WeatherDisplay:10.37,2013-12-06 15:48:00,
2013-12-06 06:53:00,35.6,34.6,30.55,NNE,24,0.0,0.0,96,0.00,CLR,,0.00,WeatherDisplay:10.37,2013-12-06 15:53:00,
2013-12-06 06:58:00,35.4,34.4,30.55,NNE,24,0.0,0.0,96,0.00,CLR,,0.00,WeatherDisplay:10.37,2013-12-06 15:58:00,
2013-12-06 07:03:00,35.5,34.5,30.56,NNE,24,0.0,0.0,96,0.00,CLR,,0.00,WeatherDisplay:10.37,2013-12-06 16:03:00,
2013-12-06 07:08:00,35.6,34.6,30.56,NNE,24,0.0,0.0,96,0.00,CLR,,0.00,WeatherDisplay:10.37,2013-12-06 16:08:00,
2013-12-06 07:13:00,35.7,34.7,30.56,NNE,24,0.0,0.0,96,0.00,CLR,,0.00,WeatherDisplay:10.37,2013-12-06 16:13:00,
2013-12-06 07:18:00,35.7,34.7,30.56,NNE,24,0.0,0.0,96,0.00,CLR,,0.00,WeatherDisplay:10.37,2013-12-06 16:18:00,
2013-12-06 07:23:00,35.7,34.7,30.56,NNE,23,0.0,0.0,96,0.00,CLR,,0.00,WeatherDisplay:10.37,2013-12-06 16:23:00,
2013-12-06 07:28:00,35.8,34.8,30.56,NNE,24,0.0,0.0,96,0.00,CLR,,0.00,WeatherDisplay:10.37,2013-12-06 16:28:00,
2013-12-06 07:33:00,35.8,34.8,30.56,NNE,24,0.0,0.0,96,0.00,CLR,,0.00,WeatherDisplay:10.37,2013-12-06 16:33:00,
2013-12-06 07:38:00,35.9,34.9,30.56,NNE,23,0.0,0.0,96,0.00,CLR,,0.00,WeatherDisplay:10.37,2013-12-06 16:38:00,
2013-12-06 07:43:00,35.9,34.9,30.56,NNE,23,0.0,0.0,96,0.00,CLR,,0.00,WeatherDisplay:10.37,2013-12-06 16:43:00,
2013-12-06 07:48:00,35.8,34.8,30.56,NNE,24,0.0,0.0,96,0.00,CLR,,0.00,WeatherDisplay:10.37,2013-12-06 16:48:00,
2013-12-06 07:53:00,35.8,34.8,30.56,NNE,24,0.0,0.0,96,0.00,CLR,,0.00,WeatherDisplay:10.37,2013-12-06 16:53:00,
2013-12-06 07:55:00,35.8,34.8,30.56,NNE,24,0.0,0.0,96,0.00,CLR,,0.00,WeatherDisplay:10.37,2013-12-06 16:55:00,
2013-12-06 07:58:00,35.8,34.8,30.56,NNE,24,0.0,0.0,96,0.00,CLR,,0.00,WeatherDisplay:10.37,2013-12-06 16:58:00,
2013-12-06 08:03:00,35.8,34.8,30.56,NNE,24,0.0,0.0,96,0.00,CLR,,0.00,WeatherDisplay:10.37,2013-12-06 17:03:00,
2013-12-06 08:14:00,35.8,34.8,30.56,NNE,24,0.0,0.0,96,0.00,CLR,,0.00,WeatherDisplay:10.37,2013-12-06 17:14:00,
2013-12-06 08:51:00,35.8,34.8,30.56,NNE,24,0.0,0.0,96,0.00,CLR,,0.00,WeatherDisplay:10.37,2013-12-06 17:51:00,
2013-12-06 08:56:00,35.8,34.8,30.56,NNE,24,0.0,0.0,96,0.00,CLR,,0.00,WeatherDisplay:10.37,2013-12-06 17:56:00,
2013-12-06 09:01:00,35.8,34.8,30.56,NNE,24,0.0,0.0,96,0.00,CLR,,0.00,WeatherDisplay:10.37,2013-12-06 18:01:00,
2013-12-06 10:21:00,35.8,34.8,30.56,NNE,24,0.0,0.0,96,0.00,CLR,,0.00,WeatherDisplay:10.37,2013-12-06 19:21:00,
2013-12-06 11:58:00,35.8,34.8,30.56,NNE,24,0.0,0.0,96,0.00,CLR,,0.00,WeatherDisplay:10.37,2013-12-06 20:58:00,
2013-12-06 14:25:00,35.8,34.8,30.56,NNE,24,0.0,0.0,96,0.00,CLR,,0.00,WeatherDisplay:10.37,2013-12-06 23:25:00,
2013-12-06 15:47:00,35.8,34.8,30.56,NNE,24,0.0,0.0,96,0.00,CLR,,0.00,WeatherDisplay:10.37,2013-12-07 00:47:00,
2013-12-06 17:14:00,35.8,34.8,30.56,NNE,24,0.0,0.0,96,0.00,CLR,,0.00,WeatherDisplay:10.37,2013-12-07 02:14:00,
2013-12-06 20:05:00,35.8,34.8,30.56,NNE,24,0.0,0.0,96,0.00,CLR,,0.00,WeatherDisplay:10.37,2013-12-07 05:05:00,
2013-12-06 21:08:00,35.8,34.8,30.56,NNE,24,0.0,0.0,96,0.00,CLR,,0.00,WeatherDisplay:10.37,2013-12-07 06:08:00,